This is the latest recevied weather packets stored in our database for station/object KD4EG. If no packets are shown the sender has not sent any weather packets the latest 10 day(s).
| Time | Temp. | Humidity | Pressure | Rain* | Wind** | Luminosity | Snow |
|---|---|---|---|---|---|---|---|
| 1777465615 | 15.56° C | 93% | 1015.5 hPa | 0 mm | - | 28 W/m² | - |
| 1777465311 | 15.56° C | 93% | 1015.4 hPa | 0 mm | - | 30 W/m² | - |
| 1777465005 | 15.56° C | 94% | 1015.1 hPa | 0 mm | - | 62 W/m² | - |
| 1777464700 | 15.56° C | 94% | 1014.9 hPa | 0 mm | - | 92 W/m² | - |
| 1777464397 | 15.56° C | 94% | 1015.2 hPa | 0 mm | - | 71 W/m² | - |
| 1777464093 | 15.56° C | 95% | 1015.2 hPa | 0 mm | - | 75 W/m² | - |
| 1777463792 | 15° C | 95% | 1015.3 hPa | 0 mm | - | 56 W/m² | - |
| 1777463487 | 15° C | 95% | 1015.4 hPa | 0 mm | - | 32 W/m² | - |
| 1777463184 | 15° C | 95% | 1015.2 hPa | 0 mm | - | 26 W/m² | - |
| 1777462879 | 15° C | 95% | 1015.2 hPa | 0 mm | - | 29 W/m² | - |
| 1777462576 | 15° C | 95% | 1015 hPa | 0 mm | - | 26 W/m² | - |
| 1777462271 | 15° C | 95% | 1015.3 hPa | 0 mm | - | 30 W/m² | - |
| 1777461967 | 15° C | 95% | 1015.4 hPa | 0 mm | - | 23 W/m² | - |
| 1777461664 | 15° C | 95% | 1015.5 hPa | 0 mm | - | 19 W/m² | - |
| 1777461359 | 15° C | 95% | 1015.5 hPa | 0 mm | - | 16 W/m² | - |
| 1777461055 | 15° C | 95% | 1015.8 hPa | 0 mm | - | 10 W/m² | - |
| 1777460751 | 15° C | 95% | 1015.8 hPa | 0 mm | - | 9 W/m² | - |
| 1777460448 | 15° C | 95% | 1016 hPa | 0 mm | - | 8 W/m² | - |
| 1777460143 | 15° C | 95% | 1016.3 hPa | 0 mm | - | 7 W/m² | - |
| 1777459840 | 15° C | 95% | 1016.3 hPa | 0 mm | - | 3 W/m² | - |
| 1777459537 | 15° C | 95% | 1016.6 hPa | 0 mm | - | 2 W/m² | - |
| 1777459235 | 15° C | 95% | 1016.4 hPa | 0 mm | - | 0 W/m² | - |
| 1777458933 | 15° C | 95% | 1016.7 hPa | 0 mm | - | 0 W/m² | - |
| 1777458629 | 15° C | 94% | 1016.7 hPa | 0 mm | - | 0 W/m² | - |
| 1777458326 | 15° C | 94% | 1016.3 hPa | 0 mm | - | 0 W/m² | - |
* Rain latest hour (hover to see other rain measurements)
** Current wind speed in m/s (hover to see current wind gust speed)